Wind_Speed
18 17 14 12 9 9 10 11 12 16 17 17 20 22 24 27 25 26 27 27 35 21 23 22 18 16 15 17 17 14 13 14
20 17 16 14 11 10 10 12 13 16 17 16 18 20 24 25 27 26 28 21 26 23 26 23 19 18 16 17 17 18 20 18
22 20 19 17 14 11 10 12 13 15 16 16 17 17 22 24 25 24 25 29 20 20 27 26 23 20 18 18 18 18 16 18
27 24 24 20 17 13 12 12 14 15 17 16 15 16 20 21 24 22 23 24 21 18 30 28 23 21 20 20 21 23 20 21
25 30 29 25 19 15 13 12 14 15 16 17 16 15 17 18 21 21 22 18 14 16 25 24 20 19 21 21 23 24 26 26
35 31 33 28 22 18 16 14 13 16 17 16 15 15 15 16 17 18 18 17 15 11 18 25 16 16 22 22 26 26 24 23
40 29 31 31 26 19 18 15 13 15 17 18 16 15 17 18 16 18 17 16 13 13 14 19 16 21 22 25 28 26 24 27
33 30 26 31 27 20 19 16 14 15 17 19 18 17 18 18 17 18 18 18 18 15 20 22 24 20 28 29 30 29 28 28
34 34 32 26 30 22 22 18 16 16 17 19 20 21 20 19 19 20 17 17 22 22 25 21 26 28 29 33 33 31 32 26
36 34 36 29 28 26 25 20 19 19 19 20 21 23 21 21 21 20 17 21 20 26 24 25 26 26 33 34 34 33 31 25
38 39 30 32 28 28 27 22 22 21 20 20 22 23 22 21 20 20 17 20 23 26 24 25 22 26 31 33 35 32 28 24
37 42 30 29 31 28 29 26 23 21 20 21 22 22 21 22 20 21 19 22 24 22 25 26 27 28 39 35 33 32 27 23
38 41 34 33 28 29 30 27 22 21 22 21 24 22 22 23 22 23 23 23 23 25 27 27 28 39 42 38 36 33 25 24
38 37 36 32 28 30 28 27 23 23 24 22 26 23 22 22 24 24 24 24 25 23 26 22 29 34 38 38 34 32 30 27
37 38 35 34 31 29 30 28 25 25 23 25 26 23 20 21 26 25 21 23 24 23 29 24 40 35 37 36 34 32 27 24
35 34 32 34 33 30 28 26 23 24 23 25 23 21 17 17 20 21 22 21 20 26 30 30 44 36 43 39 30 18 16 19
36 35 33 37 33 29 27 25 25 25 22 23 20 19 17 18 18 20 19 17 18 25 30 39 32 38 41 35 29 23 27 17
32 30 31 33 34 29 26 26 25 24 20 20 18 16 17 18 19 20 22 21 24 25 33 39 34 39 31 35 32 32 31 22
36 34 31 30 32 26 26 27 26 21 19 16 16 14 14 17 18 21 24 25 23 25 33 33 36 34 31 35 31 34 20 19
35 31 28 29 31 26 24 26 25 21 17 14 14 12 12 16 17 19 19 20 19 25 33 38 29 30 36 28 34 27 27 23
Wind_Direction
240 247 253 257 267 284 298 299 288 275 265 256 253 244 240 238 234 233 231 234 228 212 202 201 206 217 206 196 193 195 198 199
235 237 246 251 260 275 294 303 296 285 273 262 257 251 244 246 243 238 235 257 273 219 191 193 206 210 201 200 196 198 197 197
232 237 243 246 252 266 285 301 298 292 280 266 261 253 247 247 249 243 253 257 263 271 190 197 203 204 196 196 189 197 196 194
244 239 242 239 246 257 274 294 292 291 282 274 264 252 247 245 248 250 243 258 264 259 198 193 200 199 191 194 200 206 204 205
247 237 235 236 238 250 265 283 284 283 284 277 265 253 249 244 244 249 253 252 259 293 212 201 197 203 195 198 210 214 214 210
258 240 233 234 235 246 258 273 281 282 281 278 272 255 248 245 244 248 250 252 257 259 187 207 185 207 208 205 210 220 209 222
253 244 233 232 235 243 257 271 274 275 284 283 277 262 250 245 247 247 236 245 232 217 216 200 203 217 222 218 219 223 228 229
248 252 242 231 232 239 252 263 267 279 284 288 285 270 256 248 250 255 249 232 222 230 224 220 222 222 220 224 221 222 233 240
247 247 250 241 231 234 248 257 264 275 287 289 287 278 265 254 249 249 249 246 217 220 221 233 230 234 215 216 217 222 229 232
242 244 244 240 230 232 242 253 259 268 283 291 291 279 268 258 254 250 248 237 235 214 228 241 231 242 211 205 213 220 229 226
238 245 252 249 230 229 240 247 256 264 279 290 293 277 268 263 252 246 245 231 223 230 233 232 245 228 211 211 207 221 229 222
240 241 252 246 235 232 236 243 249 258 272 286 294 278 269 264 246 244 241 231 226 234 242 241 251 224 197 202 208 224 223 225
233 235 239 247 237 237 233 243 252 258 268 283 292 282 273 258 237 238 237 232 235 235 243 245 217 224 195 198 208 212 220 218
229 234 240 246 251 236 233 242 252 261 266 281 290 286 275 245 228 236 235 237 240 239 233 232 203 188 188 197 202 216 212 217
233 227 230 248 250 238 231 240 251 261 270 280 289 290 275 243 225 231 230 231 243 249 229 222 189 197 200 202 205 217 212 214
222 225 230 249 243 232 234 244 255 261 268 280 292 295 265 227 210 221 225 238 252 229 233 230 210 207 202 201 220 219 238 232
226 231 239 252 231 227 236 244 251 259 270 286 294 288 253 223 213 211 224 244 267 247 225 212 216 228 206 211 213 210 217 221
229 234 245 241 227 231 239 240 247 255 270 287 297 274 241 233 229 232 233 252 278 242 225 221 214 205 218 208 216 213 220 219
236 240 244 238 229 232 230 235 239 249 267 290 296 266 248 240 242 245 249 261 259 222 212 216 214 214 225 220 207 220 199 222
228 231 237 230 226 229 227 231 233 242 265 291 291 264 246 241 247 252 259 280 233 217 213 209 218 221 216 211 213 217 202 218
Height
3120 3121 3121 3122 3123 3124 3124 3125 3124 3124 3123 3124 3124 3125 3126 3126 3129 3131 3132 3134 3129 3125 3137 3139 3142 3144 3146 3148 3151 3153 3156 3158
3116 3117 3118 3119 3120 3120 3120 3121 3121 3120 3120 3120 3120 3121 3123 3124 3125 3128 3130 3132 3129 3124 3129 3134 3138 3141 3144 3147 3149 3151 3152 3155
3113 3114 3114 3115 3116 3117 3117 3118 3118 3117 3116 3116 3116 3117 3118 3120 3121 3124 3126 3128 3128 3124 3121 3130 3133 3139 3141 3145 3147 3149 3151 3154
3111 3111 3110 3111 3112 3113 3113 3114 3114 3114 3113 3113 3112 3113 3113 3116 3118 3120 3122 3123 3124 3120 3113 3125 3130 3136 3139 3142 3144 3145 3151 3152
3104 3105 3106 3106 3108 3109 3109 3110 3111 3111 3110 3109 3109 3109 3109 3111 3113 3115 3117 3119 3120 3119 3116 3122 3128 3134 3136 3139 3140 3142 3147 3149
3096 3099 3100 3102 3103 3105 3106 3107 3107 3107 3107 3106 3105 3106 3106 3107 3109 3111 3113 3114 3116 3116 3116 3121 3126 3132 3134 3136 3137 3139 3142 3145
3087 3092 3095 3097 3098 3101 3101 3103 3104 3105 3104 3103 3102 3102 3103 3103 3104 3107 3109 3111 3113 3115 3117 3120 3125 3129 3132 3134 3133 3136 3138 3141
3080 3085 3089 3092 3094 3096 3096 3098 3099 3101 3101 3100 3098 3098 3098 3098 3100 3102 3104 3108 3110 3113 3116 3119 3121 3124 3127 3130 3131 3134 3135 3138
3074 3078 3083 3087 3090 3093 3092 3093 3095 3096 3097 3096 3095 3095 3095 3094 3095 3098 3099 3102 3106 3109 3111 3113 3115 3118 3119 3124 3126 3130 3132 3136
3068 3072 3076 3080 3085 3088 3089 3088 3091 3092 3092 3092 3091 3090 3090 3090 3090 3093 3096 3098 3101 3103 3106 3109 3111 3112 3115 3118 3119 3126 3130 3133
3060 3065 3070 3073 3080 3084 3084 3085 3086 3087 3088 3088 3086 3086 3085 3085 3086 3088 3090 3093 3096 3098 3101 3103 3105 3106 3111 3114 3117 3121 3126 3131
3054 3060 3065 3068 3074 3077 3080 3081 3084 3084 3084 3084 3083 3082 3080 3080 3081 3084 3085 3088 3090 3093 3096 3097 3099 3098 3104 3110 3115 3119 3123 3127
3047 3053 3058 3062 3068 3071 3074 3076 3079 3079 3080 3079 3079 3076 3075 3074 3075 3078 3081 3083 3086 3089 3090 3092 3091 3091 3097 3106 3112 3117 3119 3123
3041 3048 3053 3058 3063 3065 3069 3071 3073 3074 3075 3074 3073 3070 3069 3068 3070 3073 3076 3078 3081 3084 3085 3087 3087 3090 3094 3102 3105 3112 3115 3119
3035 3043 3048 3053 3057 3060 3063 3065 3066 3068 3069 3069 3067 3064 3062 3062 3065 3068 3072 3074 3076 3078 3080 3084 3084 3087 3091 3098 3100 3106 3111 3114
3032 3038 3043 3048 3051 3054 3057 3060 3062 3063 3064 3063 3060 3057 3056 3058 3060 3064 3067 3070 3070 3073 3075 3077 3079 3083 3088 3093 3097 3105 3109 3113
3027 3033 3037 3041 3044 3048 3051 3054 3056 3058 3058 3057 3054 3052 3052 3054 3057 3060 3062 3064 3066 3067 3068 3071 3076 3080 3085 3089 3094 3100 3103 3109
3021 3026 3031 3034 3038 3042 3046 3048 3050 3052 3053 3051 3049 3048 3048 3050 3053 3055 3057 3057 3058 3059 3062 3065 3070 3074 3080 3085 3090 3096 3099 3105
3014 3021 3025 3028 3033 3036 3040 3042 3045 3047 3048 3046 3045 3044 3044 3046 3048 3050 3051 3051 3049 3050 3055 3059 3065 3070 3076 3081 3087 3090 3097 3102
3006 3014 3019 3021 3027 3031 3033 3036 3040 3042 3043 3042 3041 3041 3040 3042 3044 3045 3044 3043 3042 3046 3050 3055 3061 3067 3071 3076 3083 3087 3093 3098